Location: Audignicourt
(49.4788°N, 3.1340°E)
Time: 07:55:01
(UTC+00:00)

COSMOS 2406 - Pass Details

Date: 15 May 2026
Orbit: 846 x 859 km, 71.0° (Epoch: 6 June)

Event Time Altitude Azimuth Distance (km) Brightness Sun altitude
Rises 21:21:57 0° 222° (SW) 3,423 6.2 -14.6°
Reaches altitude 10° 21:24:28 10° 227° (SW) 2,490 5.6 -14.8°
Maximum altitude 21:30:04 55° 305° (NW) 1,031 4.0 -15.3°
Drops below altitude 10° 21:35:43 10° 23° (NNE) 2,500 6.1 -15.8°
Sets 21:38:14 0° 28° (NNE) 3,438 6.8 -16.0°
